Location: Grand Moustoir
(47.8355°N, 3.3120°W)
Time: 11:40:19
(UTC+00:00)

NOSS 2-2 (E) - Pass Details

Date: 20 January 2020
Orbit: 484 x 1723 km, 63.3° (Epoch: 03 February)

Event Time Altitude Azimuth Distance (km) Brightness Sun altitude
Exits shadow 05:59:55 50° 264° (W) 673 3.3 -18.8°
Maximum altitude 06:00:39 62° 315° (NW) 602 3.2 -18.7°
Drops below altitude 10° 06:04:54 10° 36° (NE) 1,977 6.5 -18.0°
Sets 06:07:28 0° 40° (NE) 3,044 7.5 -17.6°
